星链-3505 (STARLINK-3505 )

导读

STARLINK-3505是美国SpaceX星链(Starlink)项目的卫星,于2022年2月21日发射。星链计划旨在构建全球卫星互联网星座,为全球偏远地区等提供高速互联网接入服务。STARLINK-3505入轨后,与其他星链卫星组网,进一步扩充星链星座规模,提升星座的覆盖能力与服务稳定性。

基本信息
目录编号:
51750
目录名称:
STARLINK-3505
国际标识:
2022-016AN
轨道中心:
EARTH
卫星名称:
星链-3505
卫星全名:
星链-3505 (STARLINK-3505 )
卫星状态:
在轨 (已飞行1656 天)
发射日期:
2022-02-21 UTC
国别 :
美国 (US)
星等 :
--
轨道信息
数据来源 国际轨道数据
星历时间: 2026-09-04T06:14:43+0800
15小时前
查看轨道信息
半长轴: 6848.871km
偏心率: 0.0001217
轨道倾角: 53.160°
近地点辐角 82.862°
升交点赤经 219.035°
平近点角 277.252°
近地点: 469.9km
远地点: 471.568km
周期: 94.013分钟
每日圈数: 15.317021
详细信息
固有亮度:
5
最大亮度:
2.5
卫星平台:
Starlink v1.5
覆盖范围:
全球
运营商:
太空探索技术公司
运营商所在国:
美国
制造商(研发单位):
太空探索技术公司
制造商所在国:
美国
使用方式:
暂无
卫星简介
星链(Starlink)计划是由太空探索技术公司(SpaceX)提出的一个巨型低轨卫星互联网星座项目,计划在2019年至2024年间在太空搭建由约1.2万颗卫星组成的“星链”网络,其中1584颗将部署在地球上空550千米处的近地轨道,并从2020年开始工作。该卫星仍在工作。
2D轨道图
3D轨道图
轨道高度分析图
轨道倾角分析图
轨道综合分析图
查看轨道综合分析图
交会数据列表
事件ID 空间交会对象 最接近时刻(TCA) 交会距离 交会风险概率(CRP) 交会风险指数(CRI) 操作
CDM_260906-035505-175006-300321
2026-09-06T
03:55:20+0000
0.820 km
远距离
4.772895E-5 中风险 0.69
CDM_260830-025205-175005-912123
2026-08-30T
02:52:31+0000
1.047 km
极远距离
2.228878E-5 中风险 0.62
CDM_260830-042605-175005-912122
2026-08-30T
04:26:33+0000
2.372 km
极远距离
1.877015E-6 低风险 0.4
CDM_260906-224405-175006-262521
2026-09-06T
22:44:54+0000
2.863 km
极远距离
1.344096E-6 低风险 0.38
CDM_260830-011805-175005-912123
2026-08-30T
01:18:28+0000
2.916 km
极远距离
1.343583E-6 低风险 0.38